Flag for India Weather past 2 weeks in Jodhpur, Rajasthan, India

Now
90 °F

Haze.


Feels Like: 87 °F
Forecast: 85 / 105 °F
Wind: No wind

Location: Jaipur / Sanganer

Current Time: Apr 28, 2015 at 12:37:02 AM

Latest Report: Apr 28, 2015 at 12:00 AM


Visibility: 2 mi

Pressure: 29.71 "Hg

Humidity: 27%

Dew point: 52 °F

Location of JodhpurLocation

Historic Weather in Jodhpur — Graph

°F

Jodhpur temperature yesterday

Maximum temperature yesterday: 106 °F (at 4:00 PM)
Minimum temperature yesterday: 79 °F (at 6:00 AM)
Average temperature yesterday: 93 °F

Past Weeks' High & Low Weather Summary

 TemperatureHumidityPressure
High106 °F (Apr 25, 3:00 PM)78% (Apr 13, 1:00 AM)30.07 "Hg (Apr 13, 1:00 AM)
Low70 °F (Apr 13, 12:00 AM)6% (Apr 23, 5:00 PM)29.62 "Hg (Apr 18, 3:30 PM)
Average88 °F32%29.82 "Hg
* Reported Apr 12 11:00 PM — Apr 27 11:00 PM, Jodhpur, Weather by CustomWeather, © 2015

Note: Actual official high and low records may vary slightly from our data, if they occured in-between our weather recording intervals... More about our weather records

Advertising

Jodhpur weather history for previous 24 hours

 ConditionsComfort  
Time TempWeatherWind HumidityBarometerVisibility
11:00 PM
Mon, Apr 27
91 °FHaze.1 mph28%29.74 "Hg2 mi
10:00 PM91 °FHaze.5 mph28%29.74 "Hg2 mi
9:00 PM95 °FHaze.5 mph25%29.74 "Hg2 mi
8:00 PM97 °FHaze.7 mph22%29.74 "Hg2 mi
7:00 PM99 °FScattered clouds.7 mph21%29.71 "Hg2 mi
6:30 PM100 °FHaze.8 mph18%29.71 "Hg2 mi
6:00 PM102 °FHaze.9 mph17%29.71 "Hg2 mi
5:30 PM104 °FHaze.8 mph16%29.71 "Hg2 mi
5:00 PM106 °FHaze.3 mph11%29.71 "Hg2 mi
4:00 PM106 °FHaze.2 mph13%29.71 "Hg2 mi
3:30 PM104 °FHaze.6 mph14%29.71 "Hg2 mi
3:00 PM104 °FHaze.8 mph15%29.74 "Hg2 mi
2:30 PM102 °FHaze.5 mph17%29.77 "Hg2 mi
2:00 PM100 °FHaze.6 mph20%29.77 "Hg2 mi
1:30 PM100 °FHaze.7 mph20%29.80 "Hg2 mi
1:00 PM99 °FHaze.6 mph22%29.80 "Hg2 mi
12:30 PM97 °FHaze.6 mph28%29.83 "Hg2 mi
12:00 PM95 °FHaze.5 mph32%29.83 "Hg2 mi
11:30 AM93 °FHaze.5 mph34%29.83 "Hg2 mi
11:00 AM91 °FHaze.8 mph36%29.86 "Hg2 mi
10:00 AM90 °FHaze.8 mph38%29.86 "Hg2 mi
9:00 AM86 °FHaze.10 mph46%29.86 "Hg2 mi
8:00 AM82 °FHaze.13 mph51%29.86 "Hg2 mi
7:00 AM81 °FHaze.12 mph54%29.83 "Hg2 mi
6:00 AM79 °FHaze.10 mph58%29.80 "Hg2 mi
5:00 AM81 °FHaze.12 mph54%29.77 "Hg2 mi
4:00 AM81 °FHaze.10 mph51%29.77 "Hg2 mi
3:00 AM82 °FHaze.8 mph48%29.77 "Hg2 mi
2:00 AM84 °FHaze.8 mph45%29.77 "Hg2 mi
1:00 AM84 °FHaze.10 mph45%29.77 "Hg2 mi
12:00 AM86 °FHaze.12 mph43%29.77 "Hg2 mi
Weather by CustomWeather, © 2015

See weather overviewHow to use our weather pages